Regional Weather Roundup
Issued by NWS

Home | Current Version | Previous Version | Graphics & Text | Print | Product List | Glossary On
Versions: 1 2 3 4 5 6 7 8 9 10 11 12 13 14 15 16 17 18 19 20 21 22 23 24 25 26 27 28 29 30 31 32 33 34 35 36 37 38 39 40 41 42 43 44 45 46 47 48 49 50
000
ASUS43 KFSD 260702
RWRSD

WEATHER ROUNDUP FOR SOUTH DAKOTA
NATIONAL WEATHER SERVICE SIOUX FALLS SD
200 AM CDT THU MAY 26 2016

NOTE: "FAIR" INDICATES FEW OR NO CLOUDS BELOW 12,000 FEET WITH NO
SIGNIFICANT WEATHER AND/OR OBSTRUCTIONS TO VISIBILITY.


SDZ001>005-009-010-012>017-260800-
NORTHWEST AND NORTH CENTRAL SOUTH DAKOTA

CITY           SKY/WX    TMP DP  RH WIND       PRES   REMARKS
BUFFALO          N/A     45  40  82 W9        29.81S
FAITH            N/A     50  41  71 SW3       29.86R
MOBRIDGE       CLEAR     49  45  86 CALM      29.80S
$$

SDZ012>016-024>037-041>051-057-063-072>074-260800-
SOUTHWEST AND SOUTH CENTRAL SOUTH DAKOTA

CITY           SKY/WX    TMP DP  RH WIND       PRES   REMARKS
RAPID CTY ARPT CLEAR     46  44  93 CALM      29.90S
PIERRE         CLEAR     53  48  83 S5        29.83F
CUSTER         CLEAR     43  39  86 CALM      29.96F
ELLSWORTH AFB  CLEAR     47  47  99 W6        29.89S
PHILIP         CLEAR     49  47  93 W6        29.88R
PINE RIDGE     CLOUDY    43  38  82 CALM      29.90F
WINNER         FAIR      55  50  83 SW6       29.88R
$$

SDZ004>011-016>023-039-040-260800-
NORTHEAST SOUTH DAKOTA

CITY           SKY/WX    TMP DP  RH WIND       PRES   REMARKS
ABERDEEN       CLEAR     52  49  89 SW7       29.79F
WATERTOWN      CLOUDY    59  51  75 SW9       29.79F
BROOKINGS      CLOUDY    55  52  89 NW5       29.80
SISSETON         N/A     60  53  77 W13       29.75R
$$

SDZ017-020-022-023-036>040-048>070-260800-
SOUTHEAST SOUTH DAKOTA

CITY           SKY/WX    TMP DP  RH WIND       PRES   REMARKS
SIOUX FALLS    CLOUDY    60  56  86 SW5       29.80F
HURON          CLOUDY    55  51  86 NW5       29.82R
MITCHELL       MOCLDY    61  55  81 NW7       29.83S
YANKTON        CLOUDY    61  55  82 SW8       29.82R
$$

ABBREVIATIONS USED IN REMARKS
   TC - TEMPERATURE IN CELSIUS
  WCI - WIND CHILL INDEX
   HX - HEAT INDEX
  VSB - VISIBILITY





USA.gov is the U.S. government's official web portal to all federal, state and local government web resources and services.